| time (UTC) | temp C | wind direction | speed KPH | gust KPH | rain 1hr cm | rain 24hr cm | rain mn cm | humidity % | barometer mb |
| 20260510180518 | 27 | 51 | 1.6 | 8.0 | 0.00 | 0.00 | 0.00 | 45 | 1014.9 |
| 20260510180015 | 27 | 187 | 3.2 | 9.7 | 0.00 | 0.00 | 0.00 | 44 | 1014.9 |
| 20260510175514 | 27 | 210 | 3.2 | 9.7 | 0.00 | 0.00 | 0.00 | 48 | 1014.9 |
| 20260510174942 | 27 | 173 | 3.2 | 4.8 | 0.00 | 0.00 | 0.00 | 49 | 1014.9 |
| 20260510174439 | 26 | 300 | 1.6 | 4.8 | 0.00 | 0.00 | 0.00 | 46 | 1014.9 |
| 20260510173937 | 26 | 286 | 3.2 | 6.4 | 0.00 | 0.00 | 0.00 | 46 | 1014.9 |
| 20260510173435 | 26 | 266 | 1.6 | 6.4 | 0.00 | 0.00 | 0.00 | 47 | 1014.9 |
| 20260510172934 | 26 | 338 | 1.6 | 6.4 | 0.00 | 0.00 | 0.00 | 46 | 1014.9 |
| 20260510172433 | 26 | 317 | 3.2 | 6.4 | 0.00 | 0.00 | 0.00 | 45 | 1014.9 |
| 20260510171931 | 26 | 254 | 1.6 | 4.8 | 0.00 | 0.00 | 0.00 | 51 | 1015.2 |
| 20260510171427 | 25 | 232 | 1.6 | 6.4 | 0.00 | 0.00 | 0.00 | 53 | 1015.2 |
| 20260510170924 | 25 | 275 | 1.6 | 6.4 | 0.00 | 0.00 | 0.00 | 51 | 1015.2 |
| 20260510170423 | 25 | 233 | 3.2 | 8.0 | 0.00 | 0.00 | 0.00 | 60 | 1015.6 |
| 20260510165921 | 25 | 214 | 3.2 | 8.0 | 0.00 | 0.00 | 0.00 | 60 | 1015.6 |
| 20260510165420 | 25 | 210 | 1.6 | 8.0 | 0.00 | 0.00 | 0.00 | 62 | 1015.6 |
| 20260510164919 | 25 | 263 | 1.6 | 8.0 | 0.00 | 0.00 | 0.00 | 67 | 1015.6 |
| 20260510164417 | 25 | 188 | 3.2 | 8.0 | 0.00 | 0.00 | 0.00 | 65 | 1015.6 |
| 20260510163915 | 25 | 281 | 1.6 | 3.2 | 0.00 | 0.00 | 0.00 | 65 | 1015.6 |
| 20260510163414 | 25 | 206 | 1.6 | 6.4 | 0.00 | 0.00 | 0.00 | 66 | 1015.6 |
| 20260510162912 | 25 | 179 | 1.6 | 6.4 | 0.00 | 0.00 | 0.00 | 71 | 1015.6 |
| 20260510162409 | 25 | 240 | 1.6 | 6.4 | 0.00 | 0.00 | 0.00 | 69 | 1015.6 |
| 20260510161907 | 24 | 230 | 3.2 | 6.4 | 0.00 | 0.00 | 0.00 | 74 | 1015.6 |
| 20260510161404 | 24 | 264 | 1.6 | 3.2 | 0.00 | 0.00 | 0.00 | 72 | 1015.6 |
| 20260510160903 | 23 | 260 | 1.6 | 6.4 | 0.00 | 0.00 | 0.00 | 72 | 1015.6 |
| 20260510160401 | 23 | 297 | 0.0 | 6.4 | 0.00 | 0.00 | 0.00 | 73 | 1015.6 |
| 20260510155859 | 23 | 123 | 1.6 | 6.4 | 0.00 | 0.00 | 0.00 | 75 | 1015.6 |
| 20260510155255 | 23 | 187 | 4.8 | 6.4 | 0.00 | 0.00 | 0.00 | 78 | 1015.9 |
| 20260510154753 | 23 | 314 | 1.6 | 4.8 | 0.00 | 0.00 | 0.00 | 77 | 1015.9 |
| 20260510154251 | 23 | 234 | 1.6 | 3.2 | 0.00 | 0.00 | 0.00 | 79 | 1015.9 |
| 20260510153749 | 22 | 331 | 1.6 | 3.2 | 0.00 | 0.00 | 0.00 | 81 | 1015.9 |
| 20260510153248 | 22 | 51 | 1.6 | 3.2 | 0.00 | 0.00 | 0.00 | 83 | 1015.9 |
| 20260510152746 | 22 | 251 | 1.6 | 3.2 | 0.00 | 0.00 | 0.00 | 82 | 1015.9 |
| 20260510152243 | 22 | 352 | 1.6 | 3.2 | 0.00 | 0.00 | 0.00 | 85 | 1015.9 |
| 20260510151742 | 21 | 65 | 1.6 | 6.4 | 0.00 | 0.00 | 0.00 | 82 | 1015.9 |
| 20260510151240 | 21 | 301 | 1.6 | 6.4 | 0.00 | 0.00 | 0.00 | 83 | 1015.9 |
| 20260510150737 | 21 | 196 | 1.6 | 6.4 | 0.00 | 0.00 | 0.00 | 84 | 1015.9 |
| 20260510150204 | 21 | 189 | 1.6 | 4.8 | 0.00 | 0.00 | 0.00 | 85 | 1015.9 |
| 20260510145703 | 21 | 232 | 1.6 | 4.8 | 0.00 | 0.00 | 0.00 | 82 | 1015.9 |
| 20260510145200 | 21 | 293 | 1.6 | 6.4 | 0.00 | 0.00 | 0.00 | 82 | 1015.9 |
| 20260510144659 | 21 | 296 | 1.6 | 6.4 | 0.00 | 0.00 | 0.00 | 84 | 1015.9 |
| 20260510144157 | 21 | 257 | 1.6 | 6.4 | 0.00 | 0.00 | 0.00 | 86 | 1015.9 |
| 20260510143656 | 20 | 169 | 3.2 | 6.4 | 0.00 | 0.00 | 0.00 | 87 | 1015.9 |
| 20260510143154 | 20 | 232 | 1.6 | 4.8 | 0.00 | 0.00 | 0.00 | 86 | 1015.9 |
| 20260510142651 | 20 | 233 | 1.6 | 3.2 | 0.00 | 0.00 | 0.00 | 88 | 1015.9 |
| 20260510142149 | 20 | 318 | 1.6 | 4.8 | 0.00 | 0.00 | 0.00 | 88 | 1015.9 |
| 20260510141545 | 20 | 290 | 1.6 | 4.8 | 0.00 | 0.00 | 0.00 | 88 | 1015.9 |
| 20260510141044 | 20 | 267 | 1.6 | 4.8 | 0.00 | 0.00 | 0.00 | 87 | 1015.9 |
| 20260510140542 | 19 | 241 | 1.6 | 3.2 | 0.00 | 0.00 | 0.00 | 88 | 1015.9 |
| 20260510140008 | 19 | 194 | 0.0 | 1.6 | 0.00 | 0.00 | 0.00 | 90 | 1015.9 |
| 20260510135505 | 19 | 281 | 1.6 | 1.6 | 0.00 | 0.00 | 0.00 | 91 | 1015.9 |
| 20260510134827 | 19 | 204 | 0.0 | 1.6 | 0.00 | 0.00 | 0.00 | 95 | 1015.6 |
| 20260510134325 | 18 | 180 | 0.0 | 1.6 | 0.00 | 0.00 | 0.00 | 95 | 1015.9 |
| 20260510133823 | 18 | 208 | 1.6 | 1.6 | 0.00 | 0.00 | 0.00 | 95 | 1015.6 |
| 20260510133321 | 17 | 64 | 0.0 | 1.6 | 0.00 | 0.00 | 0.00 | 95 | 1015.6 |
| 20260510132819 | 16 | 63 | 0.0 | 1.6 | 0.00 | 0.00 | 0.00 | 95 | 1015.9 |
| 20260510132318 | 16 | 64 | 1.6 | 1.6 | 0.00 | 0.00 | 0.00 | 95 | 1015.9 |
| 20260510131816 | 16 | 66 | 1.6 | 1.6 | 0.00 | 0.00 | 0.00 | 95 | 1015.9 |
| 20260510131315 | 16 | 53 | 1.6 | 1.6 | 0.00 | 0.00 | 0.00 | 95 | 1015.9 |
| 20260510130742 | 16 | 84 | 0.0 | 0.0 | 0.00 | 0.00 | 0.00 | 95 | 1015.9 |
| 20260510130240 | 15 | 84 | 0.0 | 0.0 | 0.00 | 0.00 | 0.00 | 95 | 1015.9 |
| 20260510125738 | 15 | 85 | 0.0 | 1.6 | 0.00 | 0.00 | 0.00 | 95 | 1015.6 |
| 20260510125235 | 14 | 84 | 0.0 | 1.6 | 0.00 | 0.00 | 0.00 | 95 | 1015.6 |
| 20260510124733 | 14 | 84 | 0.0 | 1.6 | 0.00 | 0.00 | 0.00 | 95 | 1015.6 |
| 20260510124231 | 14 | 85 | 1.6 | 1.6 | 0.00 | 0.00 | 0.00 | 95 | 1015.9 |
| 20260510123627 | 13 | 84 | 0.0 | 3.2 | 0.00 | 0.00 | 0.00 | 95 | 1015.9 |
| 20260510123124 | 13 | 84 | 1.6 | 3.2 | 0.00 | 0.00 | 0.00 | 95 | 1015.6 |
| 20260510122621 | 13 | 77 | 1.6 | 3.2 | 0.00 | 0.00 | 0.00 | 95 | 1015.6 |
| 20260510122120 | 13 | 77 | 1.6 | 3.2 | 0.00 | 0.00 | 0.00 | 95 | 1015.6 |
| 20260510121618 | 13 | 95 | 1.6 | 3.2 | 0.00 | 0.00 | 0.00 | 95 | 1015.6 |
| 20260510121117 | 12 | 95 | 0.0 | 3.2 | 0.00 | 0.00 | 0.00 | 95 | 1015.6 |
| 20260510120615 | 12 | 94 | 0.0 | 3.2 | 0.00 | 0.00 | 0.00 | 95 | 1015.6 |
| 20260510120114 | 12 | 103 | 0.0 | 3.2 | 0.00 | 0.00 | 0.00 | 95 | 1015.6 |
| 20260510115612 | 12 | 91 | 1.6 | 3.2 | 0.00 | 0.00 | 0.00 | 95 | 1015.2 |
| 20260510115110 | 12 | 87 | 1.6 | 3.2 | 0.00 | 0.00 | 0.00 | 95 | 1015.2 |
| 20260510114608 | 11 | 100 | 1.6 | 3.2 | 0.00 | 0.00 | 0.00 | 95 | 1015.2 |
| 20260510114106 | 11 | 101 | 1.6 | 4.8 | 0.00 | 0.00 | 0.00 | 95 | 1015.2 |
| 20260510113603 | 11 | 95 | 3.2 | 4.8 | 0.00 | 0.00 | 0.00 | 95 | 1014.9 |
| 20260510113030 | 11 | 104 | 1.6 | 1.6 | 0.00 | 0.00 | 0.00 | 95 | 1015.2 |
| 20260510112528 | 11 | 113 | 1.6 | 1.6 | 0.00 | 0.00 | 0.00 | 95 | 1014.9 |
| 20260510112025 | 11 | 115 | 1.6 | 1.6 | 0.00 | 0.00 | 0.00 | 95 | 1014.9 |
| 20260510111420 | 11 | 115 | 0.0 | 0.0 | 0.00 | 0.00 | 0.00 | 95 | 1014.6 |
| 20260510110918 | 11 | 115 | 0.0 | 0.0 | 0.00 | 0.00 | 0.00 | 95 | 1014.6 |
| 20260510110417 | 11 | 115 | 0.0 | 0.0 | 0.00 | 0.00 | 0.00 | 95 | 1014.6 |
| 20260510105915 | 11 | 115 | 0.0 | 0.0 | 0.00 | 0.00 | 0.00 | 95 | 1014.6 |
| 20260510105413 | 11 | 115 | 0.0 | 0.0 | 0.00 | 0.00 | 0.00 | 95 | 1014.2 |
| 20260510104840 | 11 | 115 | 0.0 | 0.0 | 0.00 | 0.00 | 0.00 | 95 | 1014.2 |
| 20260510104339 | 11 | 115 | 0.0 | 0.0 | 0.00 | 0.00 | 0.00 | 95 | 1014.2 |
| 20260510103837 | 11 | 115 | 0.0 | 0.0 | 0.00 | 0.00 | 0.00 | 95 | 1014.2 |
| 20260510103336 | 11 | 115 | 0.0 | 1.6 | 0.00 | 0.00 | 0.00 | 95 | 1014.2 |
| 20260510102834 | 11 | 115 | 0.0 | 3.2 | 0.00 | 0.00 | 0.00 | 95 | 1014.2 |
| 20260510102301 | 11 | 115 | 0.0 | 3.2 | 0.00 | 0.00 | 0.00 | 95 | 1014.2 |
| 20260510101800 | 11 | 115 | 0.0 | 3.2 | 0.00 | 0.00 | 0.00 | 95 | 1014.2 |
| 20260510101257 | 11 | 115 | 1.6 | 3.2 | 0.00 | 0.00 | 0.00 | 95 | 1013.9 |
| 20260510100756 | 11 | 153 | 0.0 | 1.6 | 0.00 | 0.00 | 0.00 | 95 | 1013.9 |
| 20260510100254 | 11 | 73 | 0.0 | 0.0 | 0.00 | 0.00 | 0.00 | 95 | 1013.5 |
| 20260510095753 | 11 | 73 | 0.0 | 0.0 | 0.00 | 0.00 | 0.00 | 95 | 1013.5 |
| 20260510095252 | 11 | 73 | 0.0 | 0.0 | 0.00 | 0.00 | 0.00 | 95 | 1013.5 |
| 20260510094749 | 11 | 74 | 0.0 | 0.0 | 0.00 | 0.00 | 0.00 | 95 | 1013.5 |
| 20260510094248 | 11 | 74 | 0.0 | 0.0 | 0.00 | 0.00 | 0.00 | 95 | 1013.5 |
| 20260510093747 | 11 | 73 | 0.0 | 0.0 | 0.00 | 0.00 | 0.00 | 95 | 1013.5 |
| 20260510093245 | 11 | 74 | 0.0 | 0.0 | 0.00 | 0.00 | 0.00 | 95 | 1013.5 |
| 20260510092744 | 11 | 73 | 0.0 | 0.0 | 0.00 | 0.00 | 0.00 | 95 | 1013.5 |
| 20260510092210 | 11 | 74 | 0.0 | 0.0 | 0.00 | 0.00 | 0.00 | 95 | 1013.2 |
| 20260510091709 | 11 | 73 | 0.0 | 1.6 | 0.00 | 0.00 | 0.00 | 95 | 1013.5 |
| 20260510091136 | 11 | 74 | 0.0 | 1.6 | 0.00 | 0.00 | 0.00 | 95 | 1013.5 |
| 20260510090634 | 12 | 73 | 0.0 | 3.2 | 0.00 | 0.00 | 0.00 | 95 | 1013.2 |
| 20260510090100 | 12 | 73 | 1.6 | 3.2 | 0.00 | 0.00 | 0.00 | 95 | 1013.2 |
| 20260510085559 | 12 | 72 | 1.6 | 4.8 | 0.00 | 0.00 | 0.00 | 95 | 1013.2 |
| 20260510085057 | 11 | 104 | 1.6 | 4.8 | 0.00 | 0.00 | 0.00 | 95 | 1013.2 |
| 20260510084556 | 11 | 93 | 3.2 | 3.2 | 0.00 | 0.00 | 0.00 | 95 | 1012.9 |
| 20260510084054 | 11 | 105 | 0.0 | 1.6 | 0.00 | 0.00 | 0.00 | 95 | 1012.9 |
| 20260510083553 | 11 | 105 | 0.0 | 1.6 | 0.00 | 0.00 | 0.00 | 95 | 1012.9 |
| 20260510083052 | 11 | 105 | 0.0 | 1.6 | 0.00 | 0.00 | 0.00 | 95 | 1012.9 |
| 20260510082551 | 11 | 106 | 0.0 | 1.6 | 0.00 | 0.00 | 0.00 | 95 | 1012.5 |
| 20260510082049 | 11 | 118 | 0.0 | 0.0 | 0.00 | 0.00 | 0.00 | 95 | 1012.5 |
| 20260510081548 | 11 | 118 | 0.0 | 0.0 | 0.00 | 0.00 | 0.00 | 95 | 1012.5 |
| 20260510081015 | 11 | 118 | 0.0 | 0.0 | 0.00 | 0.00 | 0.00 | 95 | 1012.5 |
| 20260510080513 | 11 | 118 | 0.0 | 0.0 | 0.00 | 0.00 | 0.00 | 95 | 1012.5 |
| 20260510080011 | 11 | 118 | 0.0 | 0.0 | 0.00 | 0.00 | 0.00 | 95 | 1012.5 |
| 20260510075510 | 11 | 118 | 0.0 | 0.0 | 0.00 | 0.00 | 0.00 | 95 | 1012.2 |
| 20260510075008 | 12 | 118 | 0.0 | 0.0 | 0.00 | 0.00 | 0.00 | 95 | 1012.2 |
| 20260510074507 | 12 | 118 | 0.0 | 0.0 | 0.00 | 0.00 | 0.00 | 95 | 1012.2 |
| 20260510074005 | 12 | 118 | 0.0 | 0.0 | 0.00 | 0.00 | 0.00 | 95 | 1012.2 |
| 20260510073502 | 12 | 119 | 0.0 | 0.0 | 0.00 | 0.00 | 0.00 | 95 | 1012.2 |
| 20260510073001 | 12 | 119 | 0.0 | 0.0 | 0.00 | 0.00 | 0.00 | 95 | 1012.2 |
| 20260510072459 | 12 | 118 | 0.0 | 0.0 | 0.00 | 0.00 | 0.00 | 95 | 1012.2 |
| 20260510071957 | 12 | 118 | 0.0 | 0.0 | 0.00 | 0.00 | 0.00 | 95 | 1012.2 |
| 20260510071456 | 12 | 119 | 0.0 | 0.0 | 0.00 | 0.00 | 0.00 | 95 | 1012.2 |
| 20260510070953 | 12 | 118 | 0.0 | 0.0 | 0.00 | 0.00 | 0.00 | 95 | 1012.2 |
| 20260510070452 | 12 | 118 | 0.0 | 0.0 | 0.00 | 0.00 | 0.00 | 95 | 1012.2 |
| 20260510065918 | 12 | 118 | 0.0 | 0.0 | 0.00 | 0.00 | 0.00 | 95 | 1012.2 |
| 20260510065416 | 12 | 118 | 0.0 | 0.0 | 0.00 | 0.00 | 0.00 | 95 | 1012.2 |
| 20260510064913 | 12 | 119 | 0.0 | 0.0 | 0.00 | 0.00 | 0.00 | 95 | 1012.2 |
| 20260510064412 | 12 | 119 | 0.0 | 0.0 | 0.00 | 0.00 | 0.00 | 95 | 1012.2 |
| 20260510063911 | 12 | 118 | 0.0 | 0.0 | 0.00 | 0.00 | 0.00 | 95 | 1012.2 |
| 20260510063409 | 12 | 119 | 0.0 | 0.0 | 0.00 | 0.00 | 0.00 | 95 | 1012.2 |
| 20260510062907 | 12 | 119 | 0.0 | 1.6 | 0.00 | 0.00 | 0.00 | 95 | 1012.2 |
| 20260510062406 | 12 | 119 | 0.0 | 1.6 | 0.00 | 0.00 | 0.00 | 95 | 1012.2 |
| 20260510061905 | 12 | 118 | 0.0 | 1.6 | 0.00 | 0.00 | 0.00 | 95 | 1012.2 |
| 20260510061402 | 12 | 118 | 0.0 | 1.6 | 0.00 | 0.00 | 0.00 | 95 | 1012.2 |
| 20260510060828 | 12 | 119 | 0.0 | 0.0 | 0.00 | 0.00 | 0.00 | 95 | 1012.2 |
| 20260510060254 | 12 | 118 | 0.0 | 0.0 | 0.00 | 0.00 | 0.00 | 95 | 1012.2 |
| 20260510055753 | 12 | 118 | 0.0 | 0.0 | 0.00 | 0.00 | 0.00 | 95 | 1012.2 |
| 20260510055251 | 12 | 118 | 0.0 | 0.0 | 0.00 | 0.00 | 0.00 | 95 | 1012.2 |
| 20260510054749 | 13 | 118 | 0.0 | 0.0 | 0.00 | 0.00 | 0.00 | 95 | 1012.2 |
| 20260510054248 | 13 | 119 | 0.0 | 0.0 | 0.00 | 0.00 | 0.00 | 95 | 1012.2 |
| 20260510053612 | 13 | 118 | 0.0 | 0.0 | 0.00 | 0.00 | 0.00 | 95 | 1012.2 |
| 20260510053109 | 13 | 119 | 0.0 | 0.0 | 0.00 | 0.00 | 0.00 | 95 | 1012.5 |
| 20260510052536 | 13 | 118 | 0.0 | 0.0 | 0.00 | 0.00 | 0.00 | 95 | 1012.5 |
| 20260510052033 | 13 | 119 | 0.0 | 0.0 | 0.00 | 0.00 | 0.00 | 95 | 1012.5 |
| 20260510051531 | 13 | 119 | 0.0 | 1.6 | 0.00 | 0.00 | 0.00 | 95 | 1012.5 |
| 20260510051030 | 13 | 118 | 0.0 | 1.6 | 0.00 | 0.00 | 0.00 | 95 | 1012.5 |
| 20260510050527 | 13 | 119 | 0.0 | 1.6 | 0.00 | 0.00 | 0.00 | 95 | 1012.2 |
| 20260510050026 | 13 | 118 | 0.0 | 1.6 | 0.00 | 0.00 | 0.00 | 95 | 1012.2 |
| 20260510045524 | 13 | 118 | 0.0 | 1.6 | 0.00 | 0.00 | 0.00 | 95 | 1012.5 |
| 20260510045023 | 13 | 119 | 0.0 | 0.0 | 0.00 | 0.00 | 0.00 | 95 | 1012.5 |
| 20260510044521 | 13 | 119 | 0.0 | 0.0 | 0.00 | 0.00 | 0.00 | 95 | 1012.2 |
| 20260510044020 | 13 | 118 | 0.0 | 0.0 | 0.00 | 0.00 | 0.00 | 95 | 1012.2 |
| 20260510043519 | 13 | 118 | 0.0 | 0.0 | 0.00 | 0.00 | 0.00 | 94 | 1012.2 |
| 20260510042946 | 13 | 119 | 0.0 | 0.0 | 0.00 | 0.00 | 0.00 | 94 | 1012.2 |
| 20260510042443 | 13 | 119 | 0.0 | 0.0 | 0.00 | 0.00 | 0.00 | 94 | 1012.2 |
| 20260510041942 | 13 | 119 | 0.0 | 0.0 | 0.00 | 0.00 | 0.00 | 94 | 1012.2 |
| 20260510041439 | 13 | 118 | 0.0 | 0.0 | 0.00 | 0.00 | 0.00 | 94 | 1012.2 |
| 20260510040938 | 13 | 118 | 0.0 | 0.0 | 0.00 | 0.00 | 0.00 | 94 | 1012.2 |
| 20260510040435 | 13 | 118 | 0.0 | 0.0 | 0.00 | 0.00 | 0.00 | 93 | 1012.2 |
| 20260510035830 | 13 | 118 | 0.0 | 0.0 | 0.00 | 0.00 | 0.00 | 93 | 1012.2 |
| 20260510035328 | 13 | 118 | 0.0 | 0.0 | 0.00 | 0.00 | 0.00 | 93 | 1012.2 |
| 20260510034827 | 13 | 118 | 0.0 | 0.0 | 0.00 | 0.00 | 0.00 | 93 | 1012.2 |
| 20260510034326 | 13 | 119 | 0.0 | 0.0 | 0.00 | 0.00 | 0.00 | 93 | 1012.2 |
| 20260510033824 | 13 | 118 | 0.0 | 0.0 | 0.00 | 0.00 | 0.00 | 93 | 1011.9 |
| 20260510033221 | 13 | 118 | 0.0 | 0.0 | 0.00 | 0.00 | 0.00 | 93 | 1011.9 |
| 20260510032720 | 14 | 118 | 0.0 | 0.0 | 0.00 | 0.00 | 0.00 | 92 | 1011.9 |
| 20260510032218 | 14 | 118 | 0.0 | 0.0 | 0.00 | 0.00 | 0.00 | 92 | 1012.2 |
| 20260510031717 | 14 | 118 | 0.0 | 0.0 | 0.00 | 0.00 | 0.00 | 92 | 1011.9 |
| 20260510031215 | 14 | 118 | 0.0 | 0.0 | 0.00 | 0.00 | 0.00 | 91 | 1011.9 |
| 20260510030714 | 14 | 118 | 0.0 | 0.0 | 0.00 | 0.00 | 0.00 | 91 | 1011.9 |
| 20260510030141 | 14 | 118 | 0.0 | 0.0 | 0.00 | 0.00 | 0.00 | 91 | 1011.9 |
| 20260510025608 | 14 | 119 | 0.0 | 0.0 | 0.00 | 0.00 | 0.00 | 91 | 1011.9 |
| 20260510025107 | 15 | 119 | 0.0 | 0.0 | 0.00 | 0.00 | 0.00 | 90 | 1011.5 |
| 20260510024606 | 15 | 118 | 0.0 | 0.0 | 0.00 | 0.00 | 0.00 | 90 | 1011.5 |
| 20260510024032 | 15 | 118 | 0.0 | 0.0 | 0.00 | 0.00 | 0.00 | 89 | 1011.9 |
| 20260510023459 | 15 | 119 | 0.0 | 0.0 | 0.00 | 0.00 | 0.00 | 89 | 1011.5 |
| 20260510022956 | 15 | 119 | 0.0 | 0.0 | 0.00 | 0.00 | 0.00 | 88 | 1011.5 |
| 20260510022453 | 15 | 119 | 0.0 | 0.0 | 0.00 | 0.00 | 0.00 | 88 | 1011.5 |
| 20260510021920 | 15 | 119 | 0.0 | 1.6 | 0.00 | 0.00 | 0.00 | 88 | 1011.5 |
| 20260510021418 | 15 | 118 | 0.0 | 1.6 | 0.00 | 0.00 | 0.00 | 88 | 1011.5 |
| 20260510020916 | 15 | 119 | 0.0 | 1.6 | 0.00 | 0.00 | 0.00 | 88 | 1011.5 |
| 20260510020415 | 15 | 119 | 1.6 | 1.6 | 0.00 | 0.00 | 0.00 | 88 | 1011.2 |
| 20260510015913 | 15 | 118 | 0.0 | 0.0 | 0.00 | 0.00 | 0.00 | 88 | 1011.2 |
| 20260510015411 | 15 | 119 | 0.0 | 1.6 | 0.00 | 0.00 | 0.00 | 88 | 1011.2 |
| 20260510014838 | 16 | 119 | 0.0 | 1.6 | 0.00 | 0.00 | 0.00 | 88 | 1010.8 |
| 20260510014305 | 16 | 118 | 0.0 | 1.6 | 0.00 | 0.00 | 0.00 | 87 | 1010.8 |
| 20260510013733 | 16 | 119 | 1.6 | 1.6 | 0.00 | 0.00 | 0.00 | 87 | 1010.8 |
| 20260510013230 | 16 | 118 | 0.0 | 1.6 | 0.00 | 0.00 | 0.00 | 87 | 1010.5 |
| 20260510012727 | 16 | 131 | 0.0 | 0.0 | 0.00 | 0.00 | 0.00 | 86 | 1010.5 |
| 20260510012225 | 16 | 131 | 0.0 | 0.0 | 0.00 | 0.00 | 0.00 | 86 | 1010.5 |
| 20260510011726 | 16 | 131 | 0.0 | 0.0 | 0.00 | 0.00 | 0.00 | 86 | 1010.5 |
| 20260510011222 | 16 | 131 | 0.0 | 0.0 | 0.00 | 0.00 | 0.00 | 85 | 1010.2 |
| 20260510010721 | 17 | 131 | 0.0 | 0.0 | 0.00 | 0.00 | 0.00 | 84 | 1010.2 |
| 20260510010148 | 17 | 131 | 0.0 | 0.0 | 0.00 | 0.00 | 0.00 | 83 | 1010.2 |
| 20260510005647 | 17 | 131 | 0.0 | 0.0 | 0.00 | 0.00 | 0.00 | 83 | 1010.2 |
| 20260510005146 | 17 | 131 | 0.0 | 0.0 | 0.00 | 0.00 | 0.00 | 83 | 1009.8 |
| 20260510004645 | 17 | 131 | 0.0 | 0.0 | 0.00 | 0.00 | 0.00 | 82 | 1009.8 |
| 20260510004143 | 18 | 131 | 0.0 | 0.0 | 0.00 | 0.00 | 0.00 | 82 | 1009.8 |
| 20260510003611 | 18 | 131 | 0.0 | 0.0 | 0.00 | 0.00 | 0.00 | 81 | 1009.8 |
| 20260510003107 | 18 | 131 | 0.0 | 0.0 | 0.00 | 0.00 | 0.00 | 80 | 1009.8 |
| 20260510002604 | 18 | 131 | 0.0 | 0.0 | 0.00 | 0.00 | 0.00 | 80 | 1009.8 |
| 20260510002031 | 19 | 131 | 0.0 | 0.0 | 0.00 | 0.00 | 0.00 | 80 | 1009.8 |
| 20260510001529 | 19 | 131 | 0.0 | 0.0 | 0.00 | 0.00 | 0.00 | 79 | 1009.5 |
| 20260510001028 | 20 | 131 | 0.0 | 1.6 | 0.00 | 0.00 | 0.00 | 79 | 1009.5 |
| 20260510000526 | 20 | 131 | 0.0 | 1.6 | 0.00 | 0.00 | 0.00 | 77 | 1009.5 |
| 20260510000025 | 20 | 131 | 0.0 | 1.6 | 0.00 | 0.00 | 0.00 | 76 | 1009.5 |
| 20260509235522 | 21 | 131 | 0.0 | 1.6 | 0.00 | 0.00 | 0.00 | 75 | 1009.5 |
| 20260509235021 | 21 | 133 | 0.0 | 0.0 | 0.00 | 0.00 | 0.00 | 75 | 1009.5 |
| 20260509234520 | 21 | 133 | 0.0 | 0.0 | 0.00 | 0.00 | 0.00 | 74 | 1009.1 |
| 20260509234019 | 21 | 133 | 0.0 | 0.0 | 0.00 | 0.00 | 0.00 | 74 | 1009.1 |
| 20260509233517 | 22 | 132 | 0.0 | 0.0 | 0.00 | 0.00 | 0.00 | 72 | 1009.1 |
| 20260509233015 | 22 | 133 | 0.0 | 0.0 | 0.00 | 0.00 | 0.00 | 71 | 1009.1 |
| 20260509232441 | 22 | 133 | 0.0 | 0.0 | 0.00 | 0.00 | 0.00 | 68 | 1008.8 |
| 20260509231939 | 22 | 132 | 0.0 | 0.0 | 0.00 | 0.00 | 0.00 | 68 | 1009.1 |
| 20260509231438 | 22 | 132 | 0.0 | 0.0 | 0.00 | 0.00 | 0.00 | 67 | 1009.1 |
| 20260509230936 | 22 | 132 | 0.0 | 0.0 | 0.00 | 0.00 | 0.00 | 67 | 1009.1 |
| 20260509230435 | 22 | 133 | 0.0 | 0.0 | 0.00 | 0.00 | 0.00 | 66 | 1009.1 |
| 20260509225933 | 23 | 103 | 0.0 | 0.0 | 0.00 | 0.00 | 0.00 | 63 | 1008.8 |
| 20260509225431 | 23 | 160 | 0.0 | 0.0 | 0.00 | 0.00 | 0.00 | 61 | 1008.8 |
| 20260509224930 | 23 | 160 | 0.0 | 1.6 | 0.00 | 0.00 | 0.00 | 64 | 1008.8 |
| 20260509224428 | 23 | 160 | 0.0 | 1.6 | 0.00 | 0.00 | 0.00 | 64 | 1008.8 |
| 20260509223927 | 23 | 160 | 0.0 | 3.2 | 0.00 | 0.00 | 0.00 | 61 | 1008.8 |
| 20260509223426 | 23 | 162 | 1.6 | 3.2 | 0.00 | 0.00 | 0.00 | 61 | 1008.8 |
| 20260509222924 | 23 | 139 | 1.6 | 3.2 | 0.00 | 0.00 | 0.00 | 59 | 1008.8 |
| 20260509222422 | 23 | 157 | 3.2 | 3.2 | 0.00 | 0.00 | 0.00 | 62 | 1008.8 |
| 20260509221919 | 23 | 114 | 0.0 | 1.6 | 0.00 | 0.00 | 0.00 | 62 | 1008.5 |
| 20260509221417 | 23 | 116 | 1.6 | 1.6 | 0.00 | 0.00 | 0.00 | 59 | 1008.5 |
| 20260509220916 | 24 | 264 | 1.6 | 4.8 | 0.00 | 0.00 | 0.00 | 60 | 1008.5 |
| 20260509220414 | 24 | 264 | 0.0 | 4.8 | 0.00 | 0.00 | 0.00 | 61 | 1008.8 |
| 20260509215913 | 24 | 264 | 1.6 | 6.4 | 0.00 | 0.00 | 0.00 | 59 | 1008.8 |
| 20260509215411 | 24 | 332 | 0.0 | 6.4 | 0.00 | 0.00 | 0.00 | 63 | 1008.8 |
| 20260509214839 | 24 | 58 | 1.6 | 3.2 | 0.00 | 0.00 | 0.00 | 61 | 1008.8 |
| 20260509214337 | 25 | 11 | 1.6 | 3.2 | 0.00 | 0.00 | 0.00 | 60 | 1008.8 |
| 20260509213835 | 25 | 15 | 0.0 | 3.2 | 0.00 | 0.00 | 0.00 | 58 | 1008.8 |
| 20260509213333 | 25 | 103 | 1.6 | 3.2 | 0.00 | 0.00 | 0.00 | 57 | 1008.8 |
| 20260509212832 | 25 | 255 | 1.6 | 3.2 | 0.00 | 0.00 | 0.00 | 55 | 1008.8 |
| 20260509212228 | 25 | 264 | 1.6 | 3.2 | 0.00 | 0.00 | 0.00 | 54 | 1008.8 |
| 20260509211653 | 25 | 65 | 1.6 | 4.8 | 0.00 | 0.00 | 0.00 | 53 | 1008.5 |
| 20260509211119 | 25 | 111 | 1.6 | 4.8 | 0.00 | 0.00 | 0.00 | 54 | 1008.5 |
| 20260509210617 | 26 | 79 | 3.2 | 4.8 | 0.00 | 0.00 | 0.00 | 55 | 1008.5 |
| 20260509210115 | 26 | 41 | 1.6 | 4.8 | 0.00 | 0.00 | 0.00 | 55 | 1008.5 |
| 20260509205614 | 26 | 205 | 0.0 | 4.8 | 0.00 | 0.00 | 0.00 | 58 | 1008.5 |
| 20260509205112 | 26 | 229 | 1.6 | 4.8 | 0.00 | 0.00 | 0.00 | 55 | 1008.5 |
| 20260509204610 | 26 | 280 | 1.6 | 6.4 | 0.00 | 0.00 | 0.00 | 57 | 1008.1 |
| 20260509204109 | 26 | 227 | 1.6 | 9.7 | 0.00 | 0.00 | 0.00 | 53 | 1008.1 |
| 20260509203536 | 26 | 269 | 0.0 | 9.7 | 0.00 | 0.00 | 0.00 | 54 | 1008.1 |
| 20260509203034 | 26 | 222 | 1.6 | 9.7 | 0.00 | 0.00 | 0.00 | 54 | 1008.5 |
| 20260509202502 | 26 | 176 | 3.2 | 9.7 | 0.00 | 0.00 | 0.00 | 54 | 1008.8 |
| 20260509201857 | 26 | 186 | 3.2 | 8.0 | 0.00 | 0.00 | 0.00 | 54 | 1008.8 |
| 20260509201356 | 25 | 168 | 3.2 | 8.0 | 0.00 | 0.00 | 0.00 | 55 | 1008.8 |
| 20260509200854 | 25 | 183 | 3.2 | 8.0 | 0.00 | 0.00 | 0.00 | 56 | 1008.8 |
| 20260509200353 | 25 | 224 | 3.2 | 6.4 | 0.00 | 0.00 | 0.00 | 57 | 1008.8 |
| 20260509195852 | 25 | 134 | 1.6 | 6.4 | 0.00 | 0.00 | 0.00 | 55 | 1008.8 |
| 20260509195351 | 25 | 300 | 1.6 | 6.4 | 0.00 | 0.00 | 0.00 | 54 | 1009.1 |
| 20260509194850 | 26 | 302 | 1.6 | 6.4 | 0.00 | 0.00 | 0.00 | 54 | 1009.1 |
| 20260509194348 | 25 | 301 | 1.6 | 6.4 | 0.00 | 0.00 | 0.00 | 55 | 1009.1 |
| 20260509193847 | 25 | 197 | 1.6 | 6.4 | 0.00 | 0.00 | 0.00 | 54 | 1009.1 |
| 20260509193345 | 25 | 278 | 1.6 | 6.4 | 0.00 | 0.00 | 0.00 | 56 | 1009.1 |
| 20260509192844 | 25 | 180 | 3.2 | 6.4 | 0.00 | 0.00 | 0.00 | 56 | 1009.1 |
| 20260509192342 | 25 | 274 | 3.2 | 6.4 | 0.00 | 0.00 | 0.00 | 54 | 1009.1 |
| 20260509191738 | 25 | 281 | 1.6 | 4.8 | 0.00 | 0.00 | 0.00 | 56 | 1009.1 |
| 20260509191205 | 25 | 326 | 1.6 | 6.4 | 0.00 | 0.00 | 0.00 | 59 | 1009.1 |
| 20260509190704 | 25 | 72 | 0.0 | 6.4 | 0.00 | 0.00 | 0.00 | 58 | 1009.5 |
| 20260509190202 | 25 | 98 | 1.6 | 6.4 | 0.00 | 0.00 | 0.00 | 57 | 1009.5 |
| 20260509185701 | 24 | 172 | 3.2 | 6.4 | 0.00 | 0.00 | 0.00 | 58 | 1009.5 |
| 20260509185127 | 24 | 190 | 3.2 | 14.5 | 0.00 | 0.00 | 0.00 | 61 | 1009.5 |
| 20260509184626 | 24 | 197 | 1.6 | 14.5 | 0.00 | 0.00 | 0.00 | 61 | 1009.1 |
| 20260509184123 | 24 | 311 | 1.6 | 14.5 | 0.00 | 0.00 | 0.00 | 61 | 1009.5 |
| 20260509183618 | 24 | 208 | 3.2 | 14.5 | 0.00 | 0.00 | 0.00 | 59 | 1009.5 |
| 20260509183117 | 24 | 235 | 6.4 | 12.9 | 0.00 | 0.00 | 0.00 | 58 | 1009.1 |
| 20260509182615 | 24 | 255 | 1.6 | 14.5 | 0.00 | 0.00 | 0.00 | 60 | 1009.1 |
| 20260509182042 | 23 | 312 | 3.2 | 16.1 | 0.00 | 0.00 | 0.00 | 62 | 1009.1 |
| 20260509181539 | 23 | 225 | 4.8 | 16.1 | 0.00 | 0.00 | 0.00 | 59 | 1009.1 |
| 20260509181038 | 23 | 227 | 3.2 | 6.4 | 0.00 | 0.00 | 0.00 | 61 | 1009.1 |